Sigfox identifier Datetime Temperature Humidity SNR
00388B36 2018-10-09 08:49:27 20.5 41 10.3
00388B36 2018-10-09 07:48:22 20.5 40 10.4
00388B36 2018-10-09 05:46:16 20.4 39 10.5
00388B36 2018-10-09 01:42:12 20.4 39 10.6
00388B36 2018-10-09 00:41:13 20.4 39 10.8
00388B36 2018-10-08 22:39:16 20.4 39 10.7
00388B36 2018-10-08 21:38:11 20.4 39 10.9
00388B36 2018-10-08 20:37:12 20.3 39 11
00388B36 2018-10-08 19:36:14 20.2 39 10.9
00388B36 2018-10-08 18:35:14 20.2 39 11
00388B36 2018-10-08 17:34:18 20.2 39 11
00388B36 2018-10-08 12:29:15 20 37 10.7
00388B36 2018-10-08 08:25:05 20 38 10.8
00388B36 2018-10-08 07:24:08 20.1 39 10.9
00388B36 2018-10-08 06:23:08 20.2 39 11.1
00388B36 2018-10-08 05:22:10 20.2 39 11
00388B36 2018-10-08 04:21:04 20.2 39 11
00388B36 2018-10-08 03:20:04 20.2 40 11.1
00388B36 2018-10-08 02:18:59 20.2 40 10.8
00388B36 2018-10-08 01:17:57 20.2 40 10.9
00388B36 2018-10-08 00:16:50 20.2 40 10.8
00388B36 2018-10-07 23:15:52 20.2 40 10.8
00388B36 2018-10-07 22:14:52 20.2 40 10.5
00388B36 2018-10-07 21:13:46 20.3 40 10.7
00388B36 2018-10-07 20:12:44 20.3 40 10.9
00388B36 2018-10-07 19:11:44 20.3 40 10.9
00388B36 2018-10-07 18:10:43 20.3 40 10.8
00388B36 2018-10-07 17:09:39 20.4 40 10.8
00388B36 2018-10-07 16:08:34 20.4 40 10.7
00388B36 2018-10-07 15:07:31 20.4 40 10.6
00388B36 2018-10-07 14:06:31 20.4 40 10.6
00388B36 2018-10-07 12:04:28 20.4 40 10.5
00388B36 2018-10-07 11:03:29 20.4 40 10.5
00388B36 2018-10-07 10:02:28 20.5 40 10.8
00388B36 2018-10-07 09:01:30 20.5 40 10.6
00388B36 2018-10-07 08:00:32 20.6 40 10.8
00388B36 2018-10-07 06:59:27 20.6 40 10.8
00388B36 2018-10-07 05:58:25 20.6 40 10.7
00388B36 2018-10-07 04:57:24 20.6 40 10.5
00388B36 2018-10-07 03:56:24 20.6 40 10.4
00388B36 2018-10-07 02:55:17 20.6 40 10.2
00388B36 2018-10-07 01:54:15 20.6 40 10.3
00388B36 2018-10-07 00:53:13 20.6 40 10.6
00388B36 2018-10-06 22:51:07 20.6 40 10.9
00388B36 2018-10-06 21:50:06 20.6 40 10.7
00388B36 2018-10-06 20:49:01 20.7 40 10.6
00388B36 2018-10-06 19:47:58 20.6 40 10.4
00388B36 2018-10-06 18:46:53 20.8 40 10.5
00388B36 2018-10-06 17:45:47 20.8 40 10.6
00388B36 2018-10-06 16:44:46 20.8 40 10.1
00388B36 2018-10-06 15:43:41 20.8 40 10.2
00388B36 2018-10-06 14:42:38 20.8 40 10.3
00388B36 2018-10-06 13:41:33 20.8 40 10.5
00388B36 2018-10-06 12:40:27 20.8 40 11
00388B36 2018-10-06 11:39:22 20.8 40 11.1
00388B36 2018-10-06 10:38:20 20.8 40 11.1
00388B36 2018-10-06 09:37:19 20.8 40 11.1
00388B36 2018-10-06 08:36:19 20.9 40 11.2
00388B36 2018-10-06 07:35:13 20.8 40 10.9
00388B36 2018-10-06 06:34:12 20.8 41 11
00388B36 2018-10-06 05:33:07 20.9 41 11
00388B36 2018-10-06 04:32:03 20.9 41 10.9
00388B36 2018-10-06 03:31:01 20.9 41 10.9
00388B36 2018-10-06 02:30:01 20.8 41 10.9
00388B36 2018-10-06 01:28:57 20.9 41 11.1
00388B36 2018-10-06 00:27:55 20.8 41 11.6
00388B36 2018-10-05 23:26:53 20.8 41 11.7
00388B36 2018-10-05 22:25:51 20.9 41 11.4
00388B36 2018-10-05 21:24:50 20.8 41 11.1
00388B36 2018-10-05 20:23:49 20.8 41 11.1
00388B36 2018-10-05 18:21:47 20.8 41 11.4
00388B36 2018-10-05 17:20:48 20.8 41 11.8
00388B36 2018-10-05 12:15:26 20.6 37 12.3
00388B36 2018-10-05 09:12:19 20.5 35 12.2
00388B36 2018-10-05 08:11:14 20.5 34 12.2
00388B36 2018-10-05 07:10:11 20.6 35 12.5
00388B36 2018-10-05 06:09:06 20.6 35 12.6
00388B36 2018-10-05 05:08:07 20.6 35 12.5
00388B36 2018-10-05 04:07:06 20.6 35 12.4
00388B36 2018-10-05 03:06:00 20.6 35 12.3
00388B36 2018-10-05 02:05:02 20.6 35 12.4
00388B36 2018-10-05 01:03:57 20.6 34 12.4
00388B36 2018-10-05 00:03:00 20.6 34 14.6
00388B36 2018-10-04 23:01:55 20.6 34 14.6
00388B36 2018-10-04 22:00:54 20.6 34 14.6
00388B36 2018-10-04 20:59:56 20.6 34 14.6
00388B36 2018-10-04 19:58:51 20.6 34 14.6
00388B36 2018-10-04 18:57:46 20.5 33 14.6
00388B36 2018-10-04 17:56:42 20.6 33 14.7
00388B36 2018-10-04 12:51:25 20.4 36 18.4
00388B36 2018-10-04 11:50:23 20.4 37 18.3
00388B36 2018-10-04 10:49:17 20.3 37 18.2
00388B36 2018-10-04 09:48:14 20.2 38 18.2
00388B36 2018-10-04 08:47:12 20.2 38 18.2
00388B36 2018-10-04 07:46:13 20.2 39 18.2
00388B36 2018-10-04 06:45:15 20.2 40 18.2
00388B36 2018-10-04 04:43:14 20.3 41 18.1
00388B36 2018-10-04 03:42:10 20.3 41 18
00388B36 2018-10-04 02:41:06 20.3 41 18
00388B36 2018-10-04 01:40:05 20.4 41 18
00388B36 2018-10-04 00:38:58 20.4 42 18
00388B36 2018-10-03 23:37:57 20.4 42 18
00388B36 2018-10-03 22:36:56 20.4 42 18.2
00388B36 2018-10-03 21:35:52 20.4 42 18.3
00388B36 2018-10-03 20:34:49 20.5 42 18.5
00388B36 2018-10-03 19:33:43 20.5 42 18.6
00388B36 2018-10-03 18:32:42 20.6 43 18.8
00388B36 2018-10-03 16:30:34 20.6 43 18.1
00388B36 2018-10-03 15:29:31 20.6 43 18.3
00388B36 2018-10-03 14:28:33 20.6 43 18.5
00388B36 2018-10-03 13:27:29 20.5 42 18.7
00388B36 2018-10-03 10:24:18 20.4 41 19
00388B36 2018-10-03 08:22:10 20.2 40 19.2
00388B36 2018-10-03 07:21:03 20.3 40 19.5
00388B36 2018-10-03 06:20:00 20.4 41 10.9
00388B36 2018-10-03 05:18:55 20.3 41 11.1
00388B36 2018-10-03 04:17:53 20.3 41 11.3
00388B36 2018-10-03 03:16:43 20.4 41 11.5
00388B36 2018-10-03 01:14:36 20.4 41 11.9
00388B36 2018-10-03 00:13:30 20.4 41 12.3
00388B36 2018-10-02 23:12:26 20.4 41 12.8
00388B36 2018-10-02 22:11:17 20.4 41 13.3
00388B36 2018-10-02 21:10:10 20.4 41 13.7
00388B36 2018-10-02 16:04:36 20.8 41 14.2
00388B36 2018-10-02 15:03:29 20.8 40 15.6
00388B36 2018-10-02 14:02:18 21 40 16.1
00388B36 2018-10-02 11:59:53 20.8 51 0